This is the latest recevied weather packets stored in our database for station/object KD4WXI. If no packets are shown the sender has not sent any weather packets the latest 10 day(s).
| Time | Temp. | Humidity | Pressure | Rain* | Wind** | Luminosity | Snow |
|---|---|---|---|---|---|---|---|
| 1777991673 | 22.22° C | 52% | 1017.4 hPa | 0 mm | - | 522 W/m² | - |
| 1777991370 | 22.22° C | 54% | 1017.3 hPa | 0 mm | - | 506 W/m² | - |
| 1777991068 | 21.67° C | 54% | 1017.1 hPa | 0 mm | - | 485 W/m² | - |
| 1777990765 | 21.67° C | 55% | 1017.1 hPa | 0 mm | - | 493 W/m² | - |
| 1777990462 | 21.67° C | 55% | 1017.1 hPa | 0 mm | - | 439 W/m² | - |
| 1777989855 | 21.67° C | 56% | 1017.3 hPa | 0 mm | - | 456 W/m² | - |
| 1777989552 | 21.11° C | 59% | 1017.3 hPa | 0 mm | - | 459 W/m² | - |
| 1777989249 | 21.11° C | 57% | 1017 hPa | 0 mm | - | 440 W/m² | - |
| 1777988945 | 20.56° C | 57% | 1017 hPa | 0 mm | - | 428 W/m² | - |
| 1777988641 | 20.56° C | 60% | 1017.2 hPa | 0 mm | - | 405 W/m² | - |
| 1777988338 | 20.56° C | 61% | 1017.1 hPa | 0 mm | - | 398 W/m² | - |
| 1777988035 | 20° C | 60% | 1017.3 hPa | 0 mm | - | 384 W/m² | - |
| 1777987731 | 20° C | 61% | 1017.3 hPa | 0 mm | - | 367 W/m² | - |
| 1777987428 | 19.44° C | 63% | 1017.1 hPa | 0 mm | - | 351 W/m² | - |
| 1777987125 | 19.44° C | 64% | 1016.9 hPa | 0 mm | - | 338 W/m² | - |
| 1777986823 | 19.44° C | 64% | 1017 hPa | 0 mm | - | 322 W/m² | - |
| 1777986520 | 18.89° C | 65% | 1017 hPa | 0 mm | - | 309 W/m² | - |
| 1777986218 | 18.89° C | 66% | 1017.4 hPa | 0 mm | - | 292 W/m² | - |
| 1777985915 | 18.89° C | 66% | 1017 hPa | 0 mm | - | 278 W/m² | - |
| 1777985612 | 18.33° C | 68% | 1017.1 hPa | 0 mm | - | 261 W/m² | - |
| 1777985309 | 17.78° C | 70% | 1017.1 hPa | 0 mm | - | 236 W/m² | - |
| 1777985006 | 17.78° C | 69% | 1017.2 hPa | 0 mm | - | 184 W/m² | - |
| 1777984702 | 17.78° C | 71% | 1017 hPa | 0 mm | - | 73 W/m² | - |
| 1777984399 | 17.78° C | 72% | 1017 hPa | 0 mm | - | 45 W/m² | - |
| 1777984095 | 17.22° C | 72% | 1017.1 hPa | 0 mm | - | 69 W/m² | - |
* Rain latest hour (hover to see other rain measurements)
** Current wind speed in m/s (hover to see current wind gust speed)